Погода в Тюкалинске

Погода в Тюкалинске : погода сейчас, прогноз погоды и архив. Всё, что Вы хотите узнать о погоде в Тюкалинске!

Хотите узнать прогноз погоды в Тюкалинске? Тогда Вам сюда: Погода в Тюкалинске

Поиск расширенной информации на нашем сайте:

Другие новости

Новости СМИ2

Главная страница сайта

Новости сайта

03.07.2017

Напоминаем, что на нашем специализированном сайте Метеоцентр.Азия вы можете получить высокодетализированные автоматические прогнозы погоды по пунктам России, СНГ и мира в авиационном формате (включающие направление и скорость ветра, видимость, явления погоды, количество и форму облачности, нижнюю и верхнюю границу облачности).


Погода в Тюкалинске - сегодня

Время (UTC), дата Ветер
(°,м/с) 
Видим.   Явления Облачность Т
(°С)
Тd
(°С)
f(%) Тe
(°С)
Pmin
(гПа)
dP
(гПа)
Po
(мм)
O2
(г/м3)
Тmin Tmax R s Состояние
почвы
09 10.08.18 240 (ЮЗ) 4000 м  слаб. дождь{ливн. осадки}  10/10 600 м 
[Sc]
+16.8 +14.8 88 +26  1001.6  -0.4  741  278           
15 10.08.18 320 (СЗ) 20000 м  в посл. час ливневой дождь  9/6 600 м кучево-дожд., средняя 
[Cb cap|Ac lent]
+17.3 +15.3 88 +28  1000.3  -0.2  740  277    +20.9  13     
21 10.08.18 290 (З) 10 км  в посл. час морось  10/10 300 м 
[St]
+13.7 +12.5 92 +18  999.7  -1  740  281           
03 11.08.18 250 (З) 20000 м  {морось}  10/8 300 м средняя 
[Frnb|As trans]
+13.1 +10.8 86 +16  998.3  -1  738  282  +12.1    0.3     
15 11.08.18 300 (СЗ) 5{12}  4000 м  слаб. ливневой дождь  10/8 600 м кучево-дожд., средняя 
[Cb cap|Ac lent]
+12.5 +11.1 91 +15  994.9  0.6  736  281    +19.3     
03 12.08.18 320 (СЗ) 7-13{15}  4000 м  слаб. дождь  10/6 300 м средняя 
[Frnb|As trans]
+9.3 +7.6 89 +7  1000  740  287  +9.3    20     
15 12.08.18 260 (З) 20000 м    4/0 верхняя 
[Ci sp]
+10.4 +7.6 83 +12  1009.7  1.7  747  289    +15.4     
21 12.08.18 230 (ЮЗ) 10 км    3/0 верхняя 
[Ci fib]
+7.8 +6.9 94 +8  1011.4  0.6  748  292           
03 13.08.18 210 (ЮЗ) 20000 м    4/0 верхняя 
[Ci fib]
+14.1 +9.8 75 +16  1013  0.9  749  285  +6.3         
09 13.08.18 240 (ЮЗ) 20000 м    9/9 600 м 
[Sc]
+20.6 +10.8 53 +23  1013.5  0.3  750  279           
21 13.08.18 180 (Ю) 10 км    ясно 
+15.7 +12.2 80 +20  1014.6  0.4  751  284           
03 14.08.18 180 (Ю) 20000 м    3/0 верхняя 
[Ci fib]
+19.4 +12.2 63 +24  1015.5  0.6  752  280  +15.1         
09 14.08.18 180 (Ю) 20000 м    3/0 верхняя 
[Ci fib]
+26.1 +13.9 47 +33  1014.8  -0.4  751  274           
15 14.08.18 140 (ЮВ) 20000 м    3/0 средняя 
[Ac lent]
+20.1 +14.3 69 +28  1013.5  -0.6  750  279    +26.6       
21 14.08.18 140 (ЮВ) 10 км    ясно 
+17.4 +11.1 66 +21  1013.2  -0.7  750  282           
03 15.08.18 120 (ЮВ) 20000 м    5/1 1000 м верхняя 
[Cu med, cong|Ci fib]
+18.7 +11.5 63 +22  1011.9  -1.1  749  280  +12         
09 15.08.18 140 (ЮВ) 6{10}  20000 м    10/0 средняя, верхняя 
[Ac trans|Cs]
+25.7 +11.1 40 +28  1009.4  -1  747  273           
15 15.08.18 120 (ЮВ) 20000 м    9/0 средняя 
[Ac lent]
+19.8 +14.3 71 +29  1007.8  -0.9  746  277    +27       
21 15.08.18 130 (ЮВ) 10 км    8/8 1000 м 
[Cu hum]
+16.7 +12.1 74 +22  1006.5  -0.5  745  280           
03 16.08.18 270 (З) 20000 м    3/0 средняя 
[Ac trans]
+20.2 +15.4 74 +30  1007.2  0.7  745  276  +15.1         
09 16.08.18 240 (ЮЗ) 20000 м    4/3 1000 м верхняя 
[Cu hum|Ci sp]
+23.6 +13.5 53 +30  1008.7  0.8  747  274           
15 16.08.18 270 (З) 20000 м    3/0 средняя 
[Ac lent]
+19.3 +13.2 68 +27  1009.5  0.3  747  279    +24.3       
21 16.08.18 300 (СЗ) 10 км    8/0 верхняя 
[Ci sp]
+16.2 +15.1 93 +26  1010  0.3  747  281           
03 17.08.18 290 (З) 20000 м    9/4 600 м кучево-дожд., средняя 
[Cb cap|Ac trans]
+17.3 +13.5 78 +24  1010.6  0.7  748  281  +13         
09 17.08.18 250 (З) 20000 м    8/3 1000 м средняя 
[Cu hum|Ac trans]
+22.3 +11.8 51 +26  1009.4  -0.8  747  276           
Время (UTC), дата Ветер
(°,м/с) 
Видим.   Явления Облачность Т
(°С)
Тd
(°С)
f(%) Тe
(°С)
Pmin
(гПа)
dP
(гПа)
Po
(мм)
O2
(г/м3)
Тmin Tmax R s Состояние
почвы

Для получения пояснительной информации подведите курсор к названию столбца.

ПОГОДА в Тюкалинске - архив

Всё, что Вы хотите узнать о погоде в Тюкалинске - удобно и подробно!

Выберите нужную дату (начиная с 1 января 2015* года) и нажмите кнопку "Найти".
Будут отображены архивные сводки погоды по пункту Тюкалинск, начиная с указанной даты.


Отображать данные в формате CSV (для использования в таблицах Excel)


Внимание! Наш архив погоды предназначен исключительно для личного некоммерческого использования в познавательных целях. Если Вам необходимы официальные справки о состоянии погоды (для производственных, юридических, коммерческих и т.п. целей), обращайтесь в органы Росгидромета.

*Примечание: данная дата относится к архиву по метеостанциям СССР (Россия, СНГ, Балтия).
Архив по метеостанциям Зарубежной Европы и Азии (кроме Китая) хранится 10 дней, по другим регионам земного шара (Китай, Африка, Америка, Австралия, Океания) - 1 день.

Тюкалинск - район местоположения метеостанции


Название, широта, долгота, высота метеостанции:
Тюкалинск 55.9°ш. 72.2°д. 118 м над ур. моря [Российская Федерация]

Дополнительная информация

В oтличие oт бoльшинства пoгoдных сайтoв мы публикуем пoдрoбную метеoинфoрмацию в детальнoм прoфессиoнальнoм фoрмате.

Характеристики температуры и влажнoсти вoздуха измеряются на высoте 2 м в тени вдали oт зданий и деревьев.
Скoрoсть ветра измеряется на высoте 10 м (на урoвне рoста челoвека скoрoсть ветра ниже в 1.5-2 раза). Если метеoстанция нахoдится в гoрoде или в лесу, тo скoрoсть ветра занижена на 2-4 м/с пo сравнению с oткрытым местoм. Скoрoсть ветра над акватoриями крупных рек и oзёр, а также на вершинах хoлмoв на 2-5 м/с выше, чем в oбычных услoвиях.
Атмoсфернoе давление в разных тoчках местнoсти мoжет значительнo oтличаться oт давления на метеoстанции, в зависимoсти oт услoвий рельефа (при пoдъёме на 10 м давление пoнижается примернo на 1 мм рт.ст.).